Powrót do katalogu

SL-6 R/B(2)

AktywnyHEO
NORAD 19557·ROCKET BODY·🇷🇺 Russia

Wystrzelony Oct 3, 1988 z Plesetsk Cosmodrome

Loading…

Następne Przeloty (najbliższe 24 godziny)

TLE

Starzejące sięSource: Space-Track

Epoka: Aug 28, 2026, 08:30 UTC

1 19557U 88092D   26240.35486000 -.00000062  00000-0  00000+0 0  9992
2 19557  69.3146  95.5627 5698424  36.9075 134.3541  2.04133198282510

Śledź SL-6 R/B(2) w czasie rzeczywistym z AllMySat

Download on the App Store